User: anonymous   Login
Location: Home
(42.5358°N, 72.7383°W)
Time: 03:48:01
(UTC-05:00)
Language:

NOAA 16 DEB - Orbit

View from above orbital plane
View from above orbital plane
View from above satellite
View from above satellite

Ground track
Ground track

The orbit data is extracted from the following two-line orbital elements,

1 41406U 00055KK  22333.58462233  .00003163  00000-0  12946-2 0  9998
2 41406  98.9342 105.3806 0044071 281.9974  77.6267 14.27429800352171
Epoch (UTC): 29 November 2022 14:01:51
Eccentricity: 0.0044071
inclination: 98.9342°
perigee height: 769 km
apogee height: 832 km
right ascension of ascending node: 105.3806°
argument of perigee: 281.9974°
revolutions per day: 14.27429800
mean anomaly at epoch: 77.6267°
orbit number at epoch: 35217

The dashed part of the orbit path shows where the satellite is in the earth's shadow,  

DLR